Terminal Aerodrome Forecast
Issued by NWS Pittsburgh, PA

Current Version | Previous Version | Graphics & Text | Print | Product List | Glossary On
Versions: 1 2 3 4 5 6 7 8 9 10 11 12 13 14 15 16 17 18 19 20 21 22 23 24 25
000
FTUS41 KPBZ 192320
TAFPIT
TAF
KPIT 192320Z 2000/2106 21009KT P6SM FEW250
     FM200600 21009KT P6SM FEW250 WS020/24045KT
     FM201400 22011G20KT P6SM SCT030
     FM202200 24008KT P6SM BKN030
     FM210400 23006KT P6SM BKN015=

USA.gov is the U.S. government's official web portal to all federal, state and local government web resources and services.